• In Hungary
  • List of Countries
  • For 7 days
  • Water Temperature
  • Satellite Maps
  • Weather Map
  • News
  • Weather Widgets
  • user-avatar
    Login

    Hourly Weather Posukhiv

    Today, 23 January, Tuesday

    Time Temperature Precipitation Wind Pressure Humidity
    00:00 -8°C° 0 mm 2 mps 738 mmHg 94%
    01:00 -9°C° 0 mm 2 mps 739 mmHg 94%
    02:00 -9°C° 0 mm 2 mps 739 mmHg 94%
    03:00 -9°C° 0 mm 2 mps 739 mmHg 93%
    04:00 -10°C° 0 mm 2 mps 739 mmHg 92%
    05:00 -10°C° 0 mm 2 mps 740 mmHg 91%
    06:00 -10°C° 0 mm 2 mps 740 mmHg 90%
    07:00 -12°C° 0 mm 2 mps 740 mmHg 90%
    08:00 -12°C° 0 mm 2 mps 741 mmHg 89%
    09:00 -12°C° 0 mm 3 mps 741 mmHg 86%
    10:00 -10°C° 0 mm 3 mps 741 mmHg 84%
    11:00 -9°C° 0 mm 3 mps 742 mmHg 81%
    12:00 -9°C° 0 mm 3 mps 742 mmHg 80%
    13:00 -8°C° 0 mm 3 mps 743 mmHg 79%
    14:00 -8°C° 0 mm 3 mps 743 mmHg 78%
    15:00 -8°C° 0 mm 3 mps 743 mmHg 82%
    16:00 -9°C° 0 mm 3 mps 744 mmHg 85%
    17:00 -10°C° 0 mm 3 mps 744 mmHg 88%
    18:00 -12°C° 0 mm 3 mps 745 mmHg 88%
    19:00 -10°C° 0 mm 2 mps 745 mmHg 88%
    20:00 -10°C° 0 mm 2 mps 746 mmHg 88%
    21:00 -12°C° 0 mm 2 mps 746 mmHg 88%
    22:00 -12°C° 0 mm 2 mps 747 mmHg 87%
    23:00 -12°C° 0 mm 2 mps 747 mmHg 86%

    Tomorrow, 24 January, Wednesday

    Time Temperature Precipitation Wind Pressure Humidity
    00:00 -12°C° 0 mm 2 mps 747 mmHg 85%
    01:00 -10°C° 0 mm 1 mps 748 mmHg 85%
    02:00 -10°C° 0 mm 1 mps 748 mmHg 84%
    03:00 -10°C° 0 mm 1 mps 748 mmHg 83%
    04:00 -11°C° 0 mm 1 mps 748 mmHg 82%
    05:00 -11°C° 0 mm 1 mps 748 mmHg 82%
    06:00 -11°C° 0 mm 1 mps 749 mmHg 81%
    07:00 -10°C° 0 mm 1 mps 749 mmHg 81%
    08:00 -10°C° 0 mm 1 mps 749 mmHg 80%
    09:00 -9°C° 0 mm 1 mps 750 mmHg 79%
    10:00 -9°C° 0 mm 2 mps 750 mmHg 77%
    11:00 -8°C° 0 mm 2 mps 750 mmHg 75%
    12:00 -7°C° 0 mm 2 mps 750 mmHg 75%
    13:00 -8°C° 0 mm 3 mps 749 mmHg 74%
    14:00 -7°C° 0 mm 3 mps 749 mmHg 74%
    15:00 -8°C° 0 mm 3 mps 749 mmHg 76%
    16:00 -9°C° 0 mm 3 mps 749 mmHg 79%
    17:00 -10°C° 0 mm 3 mps 749 mmHg 81%
    18:00 -10°C° 0 mm 3 mps 749 mmHg 80%
    19:00 -10°C° 0 mm 3 mps 748 mmHg 79%
    20:00 -10°C° 0 mm 3 mps 748 mmHg 77%
    21:00 -10°C° 0 mm 3 mps 748 mmHg 76%
    22:00 -10°C° 0 mm 3 mps 748 mmHg 74%
    23:00 -11°C° 0 mm 4 mps 749 mmHg 73%

    Day after tomorrow, 25 January, Thursday

    Time Temperature Precipitation Wind Pressure Humidity
    00:00 -11°C° 0 mm 4 mps 748 mmHg 73%
    01:00 -11°C° 0 mm 4 mps 748 mmHg 73%
    02:00 -12°C° 0 mm 4 mps 748 mmHg 73%
    03:00 -12°C° 0 mm 4 mps 748 mmHg 73%
    04:00 -12°C° 0 mm 4 mps 747 mmHg 73%
    05:00 -12°C° 0 mm 4 mps 747 mmHg 73%
    06:00 -12°C° 0 mm 4 mps 747 mmHg 74%
    07:00 -12°C° 0 mm 4 mps 747 mmHg 74%
    08:00 -12°C° 0 mm 4 mps 747 mmHg 74%
    09:00 -11°C° 0 mm 4 mps 747 mmHg 72%
    10:00 -11°C° 0 mm 5 mps 747 mmHg 70%
    11:00 -8°C° 0 mm 5 mps 747 mmHg 68%
    12:00 -9°C° 0 mm 6 mps 746 mmHg 68%
    13:00 -8°C° 0 mm 6 mps 746 mmHg 68%
    14:00 -6°C° 0 mm 6 mps 746 mmHg 68%
    15:00 -8°C° 0 mm 6 mps 745 mmHg 71%
    16:00 -8°C° 0 mm 5 mps 745 mmHg 74%
    17:00 -8°C° 0 mm 5 mps 745 mmHg 77%
    18:00 -8°C° 0 mm 5 mps 745 mmHg 77%
    19:00 -10°C° 0 mm 5 mps 745 mmHg 77%
    20:00 -10°C° 0 mm 5 mps 745 mmHg 77%
    21:00 -10°C° 0 mm 5 mps 745 mmHg 76%
    22:00 -10°C° 0 mm 6 mps 745 mmHg 76%
    23:00 -10°C° 0 mm 6 mps 745 mmHg 75%

    26 January, Friday

    Time Temperature Precipitation Wind Pressure Humidity
    00:00 -10°C° 0 mm 6 mps 745 mmHg 76%
    01:00 -10°C° 0 mm 6 mps 744 mmHg 76%
    02:00 -11°C° 0 mm 6 mps 744 mmHg 77%
    03:00 -11°C° 0 mm 5 mps 744 mmHg 77%
    04:00 -11°C° 0 mm 5 mps 744 mmHg 78%
    05:00 -11°C° 0 mm 5 mps 744 mmHg 79%
    06:00 -11°C° 0 mm 5 mps 744 mmHg 79%
    07:00 -11°C° 0 mm 5 mps 744 mmHg 79%
    08:00 -11°C° 0 mm 5 mps 744 mmHg 80%
    09:00 -10°C° 0 mm 6 mps 744 mmHg 77%
    10:00 -9°C° 0 mm 6 mps 744 mmHg 75%
    11:00 -8°C° 0 mm 6 mps 744 mmHg 72%
    12:00 -8°C° 0 mm 6 mps 744 mmHg 73%
    13:00 -6°C° 0 mm 6 mps 743 mmHg 73%
    14:00 -6°C° 0 mm 6 mps 743 mmHg 73%
    15:00 -6°C° 0 mm 6 mps 743 mmHg 77%
    16:00 -7°C° 0 mm 5 mps 743 mmHg 81%
    17:00 -8°C° 0 mm 5 mps 743 mmHg 85%
    18:00 -8°C° 0 mm 5 mps 743 mmHg 88%
    19:00 -9°C° 0 mm 6 mps 743 mmHg 90%
    20:00 -9°C° 0 mm 6 mps 743 mmHg 92%
    21:00 -9°C° 0 mm 6 mps 743 mmHg 92%
    22:00 -9°C° 0 mm 6 mps 743 mmHg 92%
    23:00 -8°C° 0 mm 6 mps 744 mmHg 92%

    27 January, Saturday

    Time Temperature Precipitation Wind Pressure Humidity
    00:00 -8°C° 0 mm 6 mps 744 mmHg 92%
    01:00 -8°C° 0 mm 6 mps 744 mmHg 92%
    02:00 -7°C° 0 mm 5 mps 744 mmHg 92%
    03:00 -7°C° 0 mm 5 mps 744 mmHg 93%
    04:00 -7°C° 0 mm 5 mps 744 mmHg 93%
    05:00 -8°C° 0 mm 5 mps 744 mmHg 93%
    06:00 -8°C° 0 mm 5 mps 744 mmHg 94%
    07:00 -8°C° 0 mm 5 mps 744 mmHg 94%
    08:00 -8°C° 0 mm 5 mps 744 mmHg 94%
    09:00 -7°C° 0 mm 5 mps 744 mmHg 92%
    10:00 -6°C° 0 mm 5 mps 745 mmHg 91%
    11:00 -6°C° 0 mm 5 mps 745 mmHg 89%
    12:00 -5°C° 0 mm 5 mps 745 mmHg 89%
    13:00 -5°C° 0 mm 5 mps 745 mmHg 88%
    14:00 -4°C° 0 mm 5 mps 745 mmHg 88%
    15:00 -4°C° 0 mm 4 mps 745 mmHg 89%
    16:00 -4°C° 0 mm 4 mps 745 mmHg 90%
    17:00 -4°C° 0 mm 4 mps 745 mmHg 91%
    18:00 -4°C° 0 mm 3 mps 745 mmHg 92%
    19:00 -4°C° 0 mm 3 mps 746 mmHg 93%
    20:00 -4°C° 0 mm 3 mps 746 mmHg 94%
    21:00 -3°C° 0 mm 2 mps 746 mmHg 94%
    22:00 -3°C° 0 mm 2 mps 746 mmHg 95%
    23:00 -3°C° 0 mm 2 mps 747 mmHg 95%

    28 January, Sunday

    Time Temperature Precipitation Wind Pressure Humidity
    00:00 -4°C° 0.1 mm 2 mps 747 mmHg 95%
    01:00 -4°C° 0.1 mm 2 mps 747 mmHg 95%
    02:00 -4°C° 0.1 mm 2 mps 747 mmHg 95%
    03:00 -4°C° 0 mm 2 mps 746 mmHg 95%
    04:00 -4°C° 0 mm 2 mps 746 mmHg 95%
    05:00 -2°C° 0 mm 1 mps 746 mmHg 95%
    06:00 -1°C° 0 mm 1 mps 746 mmHg 95%
    07:00 -1°C° 0 mm 1 mps 746 mmHg 95%
    08:00 -1°C° 0 mm 1 mps 746 mmHg 95%
    09:00 -1°C° 0 mm 1 mps 746 mmHg 94%
    10:00 -2°C° 0 mm 2 mps 746 mmHg 94%
    11:00 -1°C° 0 mm 2 mps 746 mmHg 93%
    12:00 -1°C° 0 mm 2 mps 745 mmHg 93%
    13:00 -1°C° 0 mm 3 mps 744 mmHg 93%
    14:00 -1°C° 0 mm 3 mps 743 mmHg 93%
    15:00 -1°C° 0 mm 3 mps 742 mmHg 94%
    16:00 -3°C° 0 mm 4 mps 742 mmHg 95%
    17:00 -3°C° 0 mm 4 mps 741 mmHg 95%
    18:00 -3°C° 0 mm 4 mps 740 mmHg 95%
    19:00 -3°C° 0 mm 4 mps 740 mmHg 95%
    20:00 -3°C° 0 mm 4 mps 739 mmHg 95%
    21:00 -2°C° 0.2 mm 4 mps 739 mmHg 93%
    22:00 -2°C° 0.2 mm 4 mps 738 mmHg 91%
    23:00 -1°C° 0.2 mm 4 mps 738 mmHg 89%
    Show more